BAW644 EGLL-LGKR

Flight info

Callsign BAW644
Flight time N/A
Altitude 37000
Route DET1J DET L6 DVR L9 KONAN UL607 KOK DCT SISGA DCT KOMOB DCT KRH DCT KUNOD DCT GEDSO DCT VEKEN DCT ALIVO DCT UNIPA DCT VAKSU DCT RODON DCT LIMJA N732 PITAS PITAS2A
Aircraft A21N/M-SDE3FGHIJ1LRWXYZ/SB1G1

Departure

Time N/A
Airport London Heathrow Airport (EGLL)

Arrival

Time 2026-04-27 13:10
Airport Corfu Ioannis Kapodistrias International Airport (LGKR)
Time Latitude Longitude Altitude Speed Heading
2026-04-27 12:25 42.98589 17.56252 37129 ft 466 kts 146°
2026-04-27 12:26 42.93384 17.61519 37131 ft 465 kts 146°
2026-04-27 12:26 42.88176 17.66772 37127 ft 466 kts 146°
2026-04-27 12:27 42.82960 17.72018 37124 ft 466 kts 146°
2026-04-27 12:27 42.77747 17.77256 37124 ft 466 kts 146°
2026-04-27 12:28 42.72524 17.82493 37124 ft 466 kts 146°
2026-04-27 12:28 42.67296 17.87725 37128 ft 467 kts 146°
2026-04-27 12:29 42.62063 17.92949 37136 ft 467 kts 146°
2026-04-27 12:29 42.56830 17.98160 37136 ft 467 kts 146°
2026-04-27 12:30 42.51594 18.03365 37127 ft 467 kts 146°
2026-04-27 12:30 42.46354 18.08561 37139 ft 467 kts 146°
2026-04-27 12:31 42.41105 18.13755 37130 ft 467 kts 146°
2026-04-27 12:31 42.35866 18.18931 37129 ft 467 kts 146°
2026-04-27 12:32 42.30621 18.24101 37132 ft 467 kts 146°
2026-04-27 12:32 42.25366 18.29268 37133 ft 467 kts 147°
2026-04-27 12:33 42.20105 18.34430 37120 ft 467 kts 147°
2026-04-27 12:33 42.14952 18.39477 37123 ft 467 kts 147°
2026-04-27 12:34 42.09691 18.44619 37119 ft 467 kts 147°
2026-04-27 12:34 42.04432 18.49748 37124 ft 467 kts 147°
2026-04-27 12:35 41.99217 18.54977 37114 ft 468 kts 144°
2026-04-27 12:35 41.94182 18.60214 37106 ft 467 kts 144°
2026-04-27 12:36 41.89037 18.65557 37122 ft 467 kts 144°
2026-04-27 12:36 41.83889 18.70894 37117 ft 467 kts 144°
2026-04-27 12:37 41.78742 18.76217 37119 ft 467 kts 144°
2026-04-27 12:37 41.73592 18.81531 37118 ft 467 kts 144°
2026-04-27 12:38 41.68476 18.86800 37117 ft 467 kts 144°
2026-04-27 12:38 41.63331 18.92087 37111 ft 466 kts 144°
2026-04-27 12:39 41.58218 18.97330 37110 ft 459 kts 144°
2026-04-27 12:39 41.55708 18.99904 36914 ft 454 kts 144°
2026-04-27 12:39 41.53171 19.02498 36613 ft 463 kts 144°
2026-04-27 12:39 41.50605 19.05118 36351 ft 465 kts 144°
2026-04-27 12:40 41.48035 19.07736 36090 ft 465 kts 145°
2026-04-27 12:40 41.45333 19.10073 35822 ft 462 kts 155°
2026-04-27 12:40 41.42391 19.11775 35584 ft 459 kts 162°
2026-04-27 12:40 41.39390 19.13233 35343 ft 459 kts 163°
2026-04-27 12:41 41.36381 19.14661 35087 ft 459 kts 163°
2026-04-27 12:41 41.33372 19.16102 34839 ft 459 kts 163°
2026-04-27 12:41 41.30369 19.17556 34598 ft 460 kts 162°
2026-04-27 12:41 41.27365 19.19018 34364 ft 460 kts 162°
2026-04-27 12:42 41.24355 19.20485 34111 ft 460 kts 162°
2026-04-27 12:42 41.21352 19.21948 33850 ft 461 kts 162°
2026-04-27 12:42 41.18337 19.23413 33588 ft 461 kts 162°
2026-04-27 12:42 41.15318 19.24879 33304 ft 462 kts 162°
2026-04-27 12:43 41.12296 19.26345 33032 ft 463 kts 162°
2026-04-27 12:43 41.09263 19.27814 32766 ft 464 kts 162°
2026-04-27 12:43 41.06231 19.29283 32498 ft 464 kts 162°
2026-04-27 12:43 41.03202 19.30748 32234 ft 463 kts 162°
2026-04-27 12:44 41.00180 19.32208 31970 ft 462 kts 162°
2026-04-27 12:44 40.97206 19.33642 31714 ft 460 kts 162°
2026-04-27 12:44 40.94163 19.35109 31454 ft 458 kts 162°
2026-04-27 12:44 40.91175 19.36549 31197 ft 457 kts 162°
2026-04-27 12:45 40.88228 19.37970 30954 ft 455 kts 162°
2026-04-27 12:45 40.85261 19.39396 30701 ft 454 kts 162°
2026-04-27 12:45 40.82297 19.40819 30448 ft 452 kts 162°
2026-04-27 12:45 40.79347 19.42235 30217 ft 451 kts 162°
2026-04-27 12:46 40.76398 19.43648 29936 ft 449 kts 162°
2026-04-27 12:46 40.73471 19.45047 29644 ft 447 kts 162°
2026-04-27 12:46 40.70556 19.46442 29251 ft 444 kts 162°
2026-04-27 12:46 40.67673 19.47823 28710 ft 440 kts 162°
2026-04-27 12:47 40.64805 19.49194 28123 ft 437 kts 162°
2026-04-27 12:47 40.62914 19.50097 27739 ft 435 kts 162°
2026-04-27 12:47 40.60075 19.51451 27143 ft 433 kts 162°
2026-04-27 12:47 40.56290 19.53253 26352 ft 431 kts 162°
2026-04-27 12:48 40.54423 19.54139 25992 ft 429 kts 162°
2026-04-27 12:48 40.51629 19.55466 25460 ft 427 kts 162°
2026-04-27 12:48 40.48842 19.56789 24900 ft 425 kts 162°
2026-04-27 12:48 40.46061 19.58107 24329 ft 424 kts 162°
2026-04-27 12:49 40.43284 19.59422 23779 ft 423 kts 162°
2026-04-27 12:49 40.40521 19.60729 23130 ft 423 kts 162°
2026-04-27 12:49 40.37752 19.62038 22522 ft 420 kts 162°
2026-04-27 12:49 40.35015 19.63331 21923 ft 416 kts 161°
2026-04-27 12:50 40.32306 19.64610 21334 ft 411 kts 161°
2026-04-27 12:50 40.29637 19.65869 20783 ft 405 kts 162°
2026-04-27 12:50 40.26998 19.67112 20254 ft 400 kts 162°
2026-04-27 12:50 40.24398 19.68336 19736 ft 395 kts 162°
2026-04-27 12:51 40.21835 19.69543 19254 ft 389 kts 162°
2026-04-27 12:51 40.19309 19.70733 18790 ft 383 kts 162°
2026-04-27 12:51 40.16815 19.71904 18315 ft 378 kts 162°
2026-04-27 12:51 40.14356 19.73057 17816 ft 373 kts 162°
2026-04-27 12:52 40.11937 19.74192 17343 ft 367 kts 162°
2026-04-27 12:52 40.09545 19.75313 16879 ft 365 kts 162°
2026-04-27 12:52 40.07180 19.76420 16425 ft 366 kts 162°
2026-04-27 12:52 40.04753 19.77554 15976 ft 366 kts 162°
2026-04-27 12:53 40.00012 19.79774 15147 ft 364 kts 162°
2026-04-27 12:53 39.97674 19.80865 14717 ft 363 kts 162°
2026-04-27 12:53 39.95780 19.81747 14357 ft 363 kts 161°
2026-04-27 12:54 39.93395 19.82860 13903 ft 364 kts 161°
2026-04-27 12:54 39.91030 19.83959 13432 ft 357 kts 161°
2026-04-27 12:54 39.88722 19.85047 12994 ft 350 kts 160°
2026-04-27 12:54 39.86470 19.86184 12578 ft 343 kts 159°
2026-04-27 12:55 39.84264 19.87309 12145 ft 338 kts 159°
2026-04-27 12:55 39.82091 19.88410 11746 ft 332 kts 159°
2026-04-27 12:55 39.79951 19.89493 11359 ft 329 kts 159°
2026-04-27 12:55 39.77819 19.90566 10991 ft 329 kts 159°
2026-04-27 12:56 39.75707 19.91628 10733 ft 320 kts 159°
2026-04-27 12:56 39.73672 19.92647 10558 ft 308 kts 160°
2026-04-27 12:56 39.71624 19.93218 10399 ft 296 kts 180°
2026-04-27 12:56 39.69645 19.92776 10162 ft 287 kts 201°
2026-04-27 12:57 39.68028 19.91324 9798 ft 284 kts 227°
2026-04-27 12:57 39.66928 19.89219 9413 ft 282 kts 239°
2026-04-27 12:57 39.65900 19.87049 9036 ft 283 kts 235°
2026-04-27 12:57 39.64736 19.84984 8689 ft 284 kts 230°
2026-04-27 12:58 39.63444 19.83066 8352 ft 283 kts 226°
2026-04-27 12:58 39.62035 19.81290 8015 ft 280 kts 221°
2026-04-27 12:58 39.60550 19.79685 7711 ft 277 kts 217°
2026-04-27 12:58 39.58991 19.78246 7389 ft 273 kts 212°
2026-04-27 12:59 39.57368 19.76969 7056 ft 273 kts 208°
2026-04-27 12:59 39.55680 19.75848 6740 ft 273 kts 204°
2026-04-27 12:59 39.53936 19.74891 6411 ft 271 kts 200°
2026-04-27 12:59 39.52164 19.74107 6079 ft 267 kts 196°
2026-04-27 13:00 39.50404 19.73501 5761 ft 264 kts 192°
2026-04-27 13:00 39.48602 19.73051 5450 ft 262 kts 188°
2026-04-27 13:00 39.46821 19.72767 5243 ft 252 kts 185°
2026-04-27 13:00 39.45117 19.72639 5049 ft 239 kts 181°
2026-04-27 13:01 39.43493 19.72649 4828 ft 229 kts 178°
2026-04-27 13:01 39.41912 19.72812 4386 ft 228 kts 166°
2026-04-27 13:01 39.40569 19.73825 4066 ft 226 kts 135°
2026-04-27 13:01 39.39770 19.75560 3961 ft 226 kts 109°
2026-04-27 13:02 39.39604 19.77579 3674 ft 228 kts 90°
2026-04-27 13:02 39.39694 19.79598 3448 ft 222 kts 90°
2026-04-27 13:02 39.39772 19.81575 3171 ft 218 kts 90°
2026-04-27 13:02 39.39828 19.83494 3000 ft 208 kts 91°
2026-04-27 13:03 39.39870 19.85284 2993 ft 193 kts 91°
2026-04-27 13:03 39.39904 19.87000 2997 ft 184 kts 90°
2026-04-27 13:03 39.40139 19.88612 2979 ft 188 kts 77°
2026-04-27 13:03 39.40525 19.90240 2977 ft 189 kts 76°
2026-04-27 13:04 39.40900 19.91868 2980 ft 189 kts 77°
2026-04-27 13:04 39.41272 19.93496 2979 ft 189 kts 77°
2026-04-27 13:04 39.41643 19.95121 2975 ft 185 kts 77°
2026-04-27 13:04 39.42039 19.96586 2949 ft 162 kts 66°
2026-04-27 13:05 39.42866 19.97396 2835 ft 151 kts 15°
2026-04-27 13:05 39.43884 19.97242 2541 ft 147 kts 342°
2026-04-27 13:05 39.44852 19.96858 2260 ft 145 kts 344°
2026-04-27 13:05 39.45807 19.96505 2043 ft 141 kts 343°
2026-04-27 13:06 39.46747 19.96154 1935 ft 140 kts 343°
2026-04-27 13:06 39.47680 19.95804 1847 ft 139 kts 343°
2026-04-27 13:06 39.48595 19.95464 1771 ft 138 kts 343°
2026-04-27 13:06 39.49523 19.95107 1641 ft 137 kts 342°
2026-04-27 13:07 39.50439 19.94743 1562 ft 138 kts 342°
2026-04-27 13:07 39.51342 19.94368 1416 ft 138 kts 340°
2026-04-27 13:07 39.52245 19.93975 1271 ft 137 kts 340°
2026-04-27 13:07 39.53147 19.93586 1161 ft 136 kts 340°
2026-04-27 13:08 39.54045 19.93193 1054 ft 136 kts 340°
2026-04-27 13:08 39.54948 19.92829 841 ft 136 kts 342°
2026-04-27 13:08 39.55865 19.92496 674 ft 139 kts 345°
2026-04-27 13:08 39.56800 19.92157 479 ft 139 kts 345°
2026-04-27 13:09 39.57740 19.91848 295 ft 139 kts 348°
2026-04-27 13:09 39.58687 19.91603 119 ft 140 kts 350°
2026-04-27 13:09 39.59640 19.91358 30 ft 136 kts 350°
2026-04-27 13:09 39.60426 19.91153 25 ft 78 kts 348°
2026-04-27 13:10 39.60843 19.91045 25 ft 49 kts 348°
2026-04-27 13:10 39.61011 19.91014 25 ft 15 kts 39°
2026-04-27 13:10 39.61053 19.91080 25 ft 9 kts 57°
2026-04-27 13:10 39.61013 19.91137 24 ft 10 kts 176°
2026-04-27 13:11 39.60939 19.91155 24 ft 11 kts 167°
2026-04-27 13:11 39.60872 19.91173 25 ft 8 kts 169°
2026-04-27 13:11 39.60825 19.91184 24 ft 2 kts 167°
2026-04-27 13:11 39.60799 19.91192 25 ft 5 kts 168°
2026-04-27 13:12 39.60787 19.91195 24 ft 1 kts 168°
2026-04-27 13:12 39.60774 19.91199 24 ft 3 kts 169°
2026-04-27 13:12 39.60747 19.91217 24 ft 6 kts 116°
2026-04-27 13:12 39.60752 19.91279 24 ft 6 kts 79°
2026-04-27 13:13 39.60759 19.91321 25 ft 2 kts 77°
2026-04-27 13:13 39.60761 19.91334 24 ft 0 kts 79°